owner,sensor,date,latitude,longitude,vertical_datum,wind_speed,wind_to_direction,wind_speed_of_gust,qcFlag 
DISL,ioos:station:DISL:MHPA:1,2013-11-01T00:00:00Z,30.6671,-87.9365,8.5,5.5,169.2,-9999.0,'1111122,1111122,1111122' 
DISL,ioos:station:DISL:MHPA:1,2013-11-01T00:30:00Z,30.6671,-87.9365,8.5,5.59,164.7,-9999.0,'1111122,1111122,1111122' 
DISL,ioos:station:DISL:MHPA:1,2013-11-01T01:00:00Z,30.6671,-87.9365,8.5,5.68,162.2,-9999.0,'1111122,1111122,1111122' 
DISL,ioos:station:DISL:MHPA:1,2013-11-01T01:30:00Z,30.6671,-87.9365,8.5,5.04,176.9,-9999.0,'1111122,1111122,1111122' 
DISL,ioos:station:DISL:MHPA:1,2013-11-01T02:00:00Z,30.6671,-87.9365,8.5,6.42,165.4,-9999.0,'1111122,1111122,1111122' 
DISL,ioos:station:DISL:MHPA:1,2013-11-01T02:30:00Z,30.6671,-87.9365,8.5,5.59,168.7,-9999.0,'1111122,1111122,1111122' 
DISL,ioos:station:DISL:MHPA:1,2013-11-01T03:00:00Z,30.6671,-87.9365,8.5,5.76,163.0,-9999.0,'1111122,1111122,1111122' 
DISL,ioos:station:DISL:MHPA:1,2013-11-01T03:30:00Z,30.6671,-87.9365,8.5,6.01,164.9,-9999.0,'1111122,1111122,1111122' 
DISL,ioos:station:DISL:MHPA:1,2013-11-01T04:00:00Z,30.6671,-87.9365,8.5,6.63,160.7,-9999.0,'1111122,1111122,1111122' 
DISL,ioos:station:DISL:MHPA:1,2013-11-01T04:30:00Z,30.6671,-87.9365,8.5,6.96,161.8,-9999.0,'1111122,1111122,1111122' 
DISL,ioos:station:DISL:MHPA:1,2013-11-01T05:00:00Z,30.6671,-87.9365,8.5,7.47,162.0,-9999.0,'1111122,1111122,1111122' 
DISL,ioos:station:DISL:MHPA:1,2013-11-01T05:30:00Z,30.6671,-87.9365,8.5,6.79,172.2,-9999.0,'1111122,1111122,1111122' 
DISL,ioos:station:DISL:MHPA:1,2013-11-01T06:00:00Z,30.6671,-87.9365,8.5,6.08,174.7,-9999.0,'1111122,1111122,1111122' 
DISL,ioos:station:DISL:MHPA:1,2013-11-01T06:30:00Z,30.6671,-87.9365,8.5,4.92,179.4,-9999.0,'1111122,1111122,1111122' 
DISL,ioos:station:DISL:MHPA:1,2013-11-01T07:00:00Z,30.6671,-87.9365,8.5,4.55,188.5,-9999.0,'1111122,1111122,1111122' 
DISL,ioos:station:DISL:MHPA:1,2013-11-01T07:30:00Z,30.6671,-87.9365,8.5,3.66,191.5,-9999.0,'1111122,1111122,1111122' 
DISL,ioos:station:DISL:MHPA:1,2013-11-01T08:00:00Z,30.6671,-87.9365,8.5,2.58,187.6,-9999.0,'1111122,1111122,1111122' 
DISL,ioos:station:DISL:MHPA:1,2013-11-01T08:30:00Z,30.6671,-87.9365,8.5,2.87,227.0,-9999.0,'1111122,1111122,1111122' 
DISL,ioos:station:DISL:MHPA:1,2013-11-01T09:00:00Z,30.6671,-87.9365,8.5,1.93,199.2,-9999.0,'1111122,1111122,1111122' 
DISL,ioos:station:DISL:MHPA:1,2013-11-01T09:30:00Z,30.6671,-87.9365,8.5,2.14,226.7,-9999.0,'1111122,1111122,1111122' 
DISL,ioos:station:DISL:MHPA:1,2013-11-01T10:00:00Z,30.6671,-87.9365,8.5,4.39,243.6,-9999.0,'1111122,1111122,1111122' 
DISL,ioos:station:DISL:MHPA:1,2013-11-01T10:30:00Z,30.6671,-87.9365,8.5,2.93,239.0,-9999.0,'1111122,1111122,1111122' 
DISL,ioos:station:DISL:MHPA:1,2013-11-01T11:00:00Z,30.6671,-87.9365,8.5,2.03,265.1,-9999.0,'1111122,1111122,1111122' 
DISL,ioos:station:DISL:MHPA:1,2013-11-01T11:30:00Z,30.6671,-87.9365,8.5,1.81,328.2,-9999.0,'1111122,1111122,1111122' 
DISL,ioos:station:DISL:MHPA:1,2013-11-01T12:00:00Z,30.6671,-87.9365,8.5,1.88,334.1,-9999.0,'1111122,1111122,1111122' 
DISL,ioos:station:DISL:MHPA:1,2013-11-01T12:30:00Z,30.6671,-87.9365,8.5,4.79,327.8,-9999.0,'1111122,1111122,1111122' 
DISL,ioos:station:DISL:MHPA:1,2013-11-01T13:00:00Z,30.6671,-87.9365,8.5,4.62,343.1,-9999.0,'1111122,1111122,1111122' 
DISL,ioos:station:DISL:MHPA:1,2013-11-01T13:30:00Z,30.6671,-87.9365,8.5,3.61,343.0,-9999.0,'1111122,1111122,1111122' 
DISL,ioos:station:DISL:MHPA:1,2013-11-01T14:00:00Z,30.6671,-87.9365,8.5,3.38,343.9,-9999.0,'1111122,1111122,1111122' 
DISL,ioos:station:DISL:MHPA:1,2013-11-01T14:30:00Z,30.6671,-87.9365,8.5,2.88,349.6,-9999.0,'1111122,1111122,1111122' 
DISL,ioos:station:DISL:MHPA:1,2013-11-01T15:00:00Z,30.6671,-87.9365,8.5,2.88,344.1,-9999.0,'1111122,1111122,1111122' 
DISL,ioos:station:DISL:MHPA:1,2013-11-01T15:30:00Z,30.6671,-87.9365,8.5,2.59,5.022,-9999.0,'1111122,1111122,1111122' 
DISL,ioos:station:DISL:MHPA:1,2013-11-01T16:00:00Z,30.6671,-87.9365,8.5,1.38,30.05,-9999.0,'1111122,1111122,1111122' 
DISL,ioos:station:DISL:MHPA:1,2013-11-01T16:30:00Z,30.6671,-87.9365,8.5,1.92,2.121,-9999.0,'1111122,1111122,1111122' 
DISL,ioos:station:DISL:MHPA:1,2013-11-01T17:00:00Z,30.6671,-87.9365,8.5,1.86,1.003,-9999.0,'1111122,1111122,1111122' 
DISL,ioos:station:DISL:MHPA:1,2013-11-01T17:30:00Z,30.6671,-87.9365,8.5,1.17,26.81,-9999.0,'1111122,1111122,1111122' 
DISL,ioos:station:DISL:MHPA:1,2013-11-01T18:00:00Z,30.6671,-87.9365,8.5,1.09,41.48,-9999.0,'1111122,1111122,1111122' 
DISL,ioos:station:DISL:MHPA:1,2013-11-01T18:30:00Z,30.6671,-87.9365,8.5,0.88,211.8,-9999.0,'1111122,1111122,1111122' 
DISL,ioos:station:DISL:MHPA:1,2013-11-01T19:00:00Z,30.6671,-87.9365,8.5,1.24,183.3,-9999.0,'1111122,1111122,1111122' 
DISL,ioos:station:DISL:MHPA:1,2013-11-01T19:30:00Z,30.6671,-87.9365,8.5,2.41,185.9,-9999.0,'1111122,1111122,1111122' 
DISL,ioos:station:DISL:MHPA:1,2013-11-01T20:00:00Z,30.6671,-87.9365,8.5,2.83,168.7,-9999.0,'1111122,1111122,1111122' 
DISL,ioos:station:DISL:MHPA:1,2013-11-01T20:30:00Z,30.6671,-87.9365,8.5,3.06,174.1,-9999.0,'1111122,1111122,1111122' 
DISL,ioos:station:DISL:MHPA:1,2013-11-01T21:00:00Z,30.6671,-87.9365,8.5,3.39,169.9,-9999.0,'1111122,1111122,1111122' 
DISL,ioos:station:DISL:MHPA:1,2013-11-01T21:30:00Z,30.6671,-87.9365,8.5,3.33,171.1,-9999.0,'1111122,1111122,1111122' 
DISL,ioos:station:DISL:MHPA:1,2013-11-01T22:00:00Z,30.6671,-87.9365,8.5,4.39,187.1,-9999.0,'1111122,1111122,1111122' 
DISL,ioos:station:DISL:MHPA:1,2013-11-01T22:30:00Z,30.6671,-87.9365,8.5,4.7,179.0,-9999.0,'1111122,1111122,1111122' 
DISL,ioos:station:DISL:MHPA:1,2013-11-01T23:00:00Z,30.6671,-87.9365,8.5,4.67,179.7,-9999.0,'1111122,1111122,1111122' 
DISL,ioos:station:DISL:MHPA:1,2013-11-01T23:30:00Z,30.6671,-87.9365,8.5,3.99,164.0,-9999.0,'1111122,1111122,1111122' 
DISL,ioos:station:DISL:MHPA:1,2013-11-02T00:00:00Z,30.6671,-87.9365,8.5,2.99,198.0,-9999.0,'1111122,1111122,1111122' 
DISL,ioos:station:DISL:MHPA:1,2013-11-02T00:30:00Z,30.6671,-87.9365,8.5,3.37,230.2,-9999.0,'1111122,1111122,1111122' 
DISL,ioos:station:DISL:MHPA:1,2013-11-02T01:00:00Z,30.6671,-87.9365,8.5,3.19,248.4,-9999.0,'1111122,1111122,1111122' 
DISL,ioos:station:DISL:MHPA:1,2013-11-02T01:30:00Z,30.6671,-87.9365,8.5,1.93,325.0,-9999.0,'1111122,1111122,1111122' 
DISL,ioos:station:DISL:MHPA:1,2013-11-02T02:00:00Z,30.6671,-87.9365,8.5,1.68,318.4,-9999.0,'1111122,1111122,1111122' 
DISL,ioos:station:DISL:MHPA:1,2013-11-02T02:30:00Z,30.6671,-87.9365,8.5,1.25,343.0,-9999.0,'1111122,1111122,1111122' 
DISL,ioos:station:DISL:MHPA:1,2013-11-02T03:00:00Z,30.6671,-87.9365,8.5,1.71,345.9,-9999.0,'1111122,1111122,1111122' 
DISL,ioos:station:DISL:MHPA:1,2013-11-02T03:30:00Z,30.6671,-87.9365,8.5,2.75,344.2,-9999.0,'1111122,1111122,1111122' 
DISL,ioos:station:DISL:MHPA:1,2013-11-02T04:00:00Z,30.6671,-87.9365,8.5,2.3,340.1,-9999.0,'1111122,1111122,1111122' 
DISL,ioos:station:DISL:MHPA:1,2013-11-02T04:30:00Z,30.6671,-87.9365,8.5,2.11,340.1,-9999.0,'1111122,1111122,1111122' 
DISL,ioos:station:DISL:MHPA:1,2013-11-02T05:00:00Z,30.6671,-87.9365,8.5,1.78,347.3,-9999.0,'1111122,1111122,1111122' 
DISL,ioos:station:DISL:MHPA:1,2013-11-02T05:30:00Z,30.6671,-87.9365,8.5,1.01,12.96,-9999.0,'1111122,1111122,1111122' 
DISL,ioos:station:DISL:MHPA:1,2013-11-02T06:00:00Z,30.6671,-87.9365,8.5,2.02,349.6,-9999.0,'1111122,1111122,1111122' 
DISL,ioos:station:DISL:MHPA:1,2013-11-02T06:30:00Z,30.6671,-87.9365,8.5,1.89,358.7,-9999.0,'1111122,1111122,1111122' 
DISL,ioos:station:DISL:MHPA:1,2013-11-02T07:00:00Z,30.6671,-87.9365,8.5,2.07,337.8,-9999.0,'1111122,1111122,1111122' 
DISL,ioos:station:DISL:MHPA:1,2013-11-02T07:30:00Z,30.6671,-87.9365,8.5,2.19,341.5,-9999.0,'1111122,1111122,1111122' 
DISL,ioos:station:DISL:MHPA:1,2013-11-02T08:00:00Z,30.6671,-87.9365,8.5,2.05,355.9,-9999.0,'1111122,1111122,1111122' 
DISL,ioos:station:DISL:MHPA:1,2013-11-02T08:30:00Z,30.6671,-87.9365,8.5,1.42,12.85,-9999.0,'1111122,1111122,1111122' 
DISL,ioos:station:DISL:MHPA:1,2013-11-02T09:00:00Z,30.6671,-87.9365,8.5,1.35,7.54,-9999.0,'1111122,1111122,1111122' 
DISL,ioos:station:DISL:MHPA:1,2013-11-02T09:30:00Z,30.6671,-87.9365,8.5,1.52,1.468,-9999.0,'1111122,1111122,1111122' 
DISL,ioos:station:DISL:MHPA:1,2013-11-02T10:00:00Z,30.6671,-87.9365,8.5,1.86,340.3,-9999.0,'1111122,1111122,1111122' 
DISL,ioos:station:DISL:MHPA:1,2013-11-02T10:30:00Z,30.6671,-87.9365,8.5,1.82,332.3,-9999.0,'1111122,1111122,1111122' 
DISL,ioos:station:DISL:MHPA:1,2013-11-02T11:00:00Z,30.6671,-87.9365,8.5,0.98,346.3,-9999.0,'1111122,1111122,1111122' 
DISL,ioos:station:DISL:MHPA:1,2013-11-02T11:30:00Z,30.6671,-87.9365,8.5,1.06,345.3,-9999.0,'1111122,1111122,1111122' 
DISL,ioos:station:DISL:MHPA:1,2013-11-02T12:00:00Z,30.6671,-87.9365,8.5,1.01,352.1,-9999.0,'1111122,1111122,1111122' 
DISL,ioos:station:DISL:MHPA:1,2013-11-02T12:30:00Z,30.6671,-87.9365,8.5,1.2,353.2,-9999.0,'1111122,1111122,1111122' 
DISL,ioos:station:DISL:MHPA:1,2013-11-02T13:00:00Z,30.6671,-87.9365,8.5,1.11,16.98,-9999.0,'1111122,1111122,1111122' 
DISL,ioos:station:DISL:MHPA:1,2013-11-02T13:30:00Z,30.6671,-87.9365,8.5,1.02,7.69,-9999.0,'1111122,1111122,1111122' 
DISL,ioos:station:DISL:MHPA:1,2013-11-02T14:00:00Z,30.6671,-87.9365,8.5,1.5,335.1,-9999.0,'1111122,1111122,1111122' 
DISL,ioos:station:DISL:MHPA:1,2013-11-02T14:30:00Z,30.6671,-87.9365,8.5,2.25,343.1,-9999.0,'1111122,1111122,1111122' 
DISL,ioos:station:DISL:MHPA:1,2013-11-02T15:00:00Z,30.6671,-87.9365,8.5,2.06,345.6,-9999.0,'1111122,1111122,1111122' 
DISL,ioos:station:DISL:MHPA:1,2013-11-02T15:30:00Z,30.6671,-87.9365,8.5,3.25,331.0,-9999.0,'1111122,1111122,1111122' 
DISL,ioos:station:DISL:MHPA:1,2013-11-02T16:00:00Z,30.6671,-87.9365,8.5,2.15,327.9,-9999.0,'1111122,1111122,1111122' 
DISL,ioos:station:DISL:MHPA:1,2013-11-02T16:30:00Z,30.6671,-87.9365,8.5,1.59,298.0,-9999.0,'1111122,1111122,1111122' 
DISL,ioos:station:DISL:MHPA:1,2013-11-02T17:00:00Z,30.6671,-87.9365,8.5,2.48,301.8,-9999.0,'1111122,1111122,1111122' 
DISL,ioos:station:DISL:MHPA:1,2013-11-02T17:30:00Z,30.6671,-87.9365,8.5,2.86,295.2,-9999.0,'1111122,1111122,1111122' 
DISL,ioos:station:DISL:MHPA:1,2013-11-02T18:00:00Z,30.6671,-87.9365,8.5,3.0,304.5,-9999.0,'1111122,1111122,1111122' 
DISL,ioos:station:DISL:MHPA:1,2013-11-02T18:30:00Z,30.6671,-87.9365,8.5,3.9,328.5,-9999.0,'1111122,1111122,1111122' 
DISL,ioos:station:DISL:MHPA:1,2013-11-02T19:00:00Z,30.6671,-87.9365,8.5,3.74,318.1,-9999.0,'1111122,1111122,1111122' 
DISL,ioos:station:DISL:MHPA:1,2013-11-02T19:30:00Z,30.6671,-87.9365,8.5,4.57,311.1,-9999.0,'1111122,1111122,1111122' 
DISL,ioos:station:DISL:MHPA:1,2013-11-02T20:00:00Z,30.6671,-87.9365,8.5,4.48,321.3,-9999.0,'1111122,1111122,1111122' 
DISL,ioos:station:DISL:MHPA:1,2013-11-02T20:30:00Z,30.6671,-87.9365,8.5,5.65,307.3,-9999.0,'1111122,1111122,1111122' 
DISL,ioos:station:DISL:MHPA:1,2013-11-02T21:00:00Z,30.6671,-87.9365,8.5,5.07,311.9,-9999.0,'1111122,1111122,1111122' 
DISL,ioos:station:DISL:MHPA:1,2013-11-02T21:30:00Z,30.6671,-87.9365,8.5,5.12,311.6,-9999.0,'1111122,1111122,1111122' 
DISL,ioos:station:DISL:MHPA:1,2013-11-02T22:00:00Z,30.6671,-87.9365,8.5,4.64,319.9,-9999.0,'1111122,1111122,1111122' 
DISL,ioos:station:DISL:MHPA:1,2013-11-02T22:30:00Z,30.6671,-87.9365,8.5,4.25,323.9,-9999.0,'1111122,1111122,1111122' 
DISL,ioos:station:DISL:MHPA:1,2013-11-02T23:00:00Z,30.6671,-87.9365,8.5,2.54,333.2,-9999.0,'1111122,1111122,1111122' 
DISL,ioos:station:DISL:MHPA:1,2013-11-02T23:30:00Z,30.6671,-87.9365,8.5,2.84,325.3,-9999.0,'1111122,1111122,1111122' 
DISL,ioos:station:DISL:MHPA:1,2013-11-03T00:00:00Z,30.6671,-87.9365,8.5,3.03,334.7,-9999.0,'1111122,1111122,1111122' 
DISL,ioos:station:DISL:MHPA:1,2013-11-03T00:30:00Z,30.6671,-87.9365,8.5,2.74,330.5,-9999.0,'1111122,1111122,1111122' 
DISL,ioos:station:DISL:MHPA:1,2013-11-03T01:00:00Z,30.6671,-87.9365,8.5,2.36,332.1,-9999.0,'1111122,1111122,1111122' 
DISL,ioos:station:DISL:MHPA:1,2013-11-03T01:30:00Z,30.6671,-87.9365,8.5,2.74,336.8,-9999.0,'1111122,1111122,1111122' 
DISL,ioos:station:DISL:MHPA:1,2013-11-03T02:00:00Z,30.6671,-87.9365,8.5,2.48,342.4,-9999.0,'1111122,1111122,1111122' 
DISL,ioos:station:DISL:MHPA:1,2013-11-03T02:30:00Z,30.6671,-87.9365,8.5,2.74,343.4,-9999.0,'1111122,1111122,1111122' 
DISL,ioos:station:DISL:MHPA:1,2013-11-03T03:00:00Z,30.6671,-87.9365,8.5,3.89,338.9,-9999.0,'1111122,1111122,1111122' 
DISL,ioos:station:DISL:MHPA:1,2013-11-03T03:30:00Z,30.6671,-87.9365,8.5,4.36,352.8,-9999.0,'1111122,1111122,1111122' 
DISL,ioos:station:DISL:MHPA:1,2013-11-03T04:00:00Z,30.6671,-87.9365,8.5,3.34,347.8,-9999.0,'1111122,1111122,1111122' 
DISL,ioos:station:DISL:MHPA:1,2013-11-03T04:30:00Z,30.6671,-87.9365,8.5,4.38,343.1,-9999.0,'1111122,1111122,1111122' 
DISL,ioos:station:DISL:MHPA:1,2013-11-03T05:00:00Z,30.6671,-87.9365,8.5,5.07,344.0,-9999.0,'1111122,1111122,1111122' 
DISL,ioos:station:DISL:MHPA:1,2013-11-03T05:30:00Z,30.6671,-87.9365,8.5,3.35,338.9,-9999.0,'1111122,1111122,1111122' 
DISL,ioos:station:DISL:MHPA:1,2013-11-03T06:00:00Z,30.6671,-87.9365,8.5,3.85,346.5,-9999.0,'1111122,1111122,1111122' 
DISL,ioos:station:DISL:MHPA:1,2013-11-03T06:30:00Z,30.6671,-87.9365,8.5,4.02,357.6,-9999.0,'1111122,1111122,1111122' 
DISL,ioos:station:DISL:MHPA:1,2013-11-03T07:00:00Z,30.6671,-87.9365,8.5,2.64,357.4,-9999.0,'1111122,1111122,1111122' 
DISL,ioos:station:DISL:MHPA:1,2013-11-03T07:30:00Z,30.6671,-87.9365,8.5,2.43,0.71,-9999.0,'1111122,1111122,1111122' 
DISL,ioos:station:DISL:MHPA:1,2013-11-03T08:00:00Z,30.6671,-87.9365,8.5,2.36,9.13,-9999.0,'1111122,1111122,1111122' 
DISL,ioos:station:DISL:MHPA:1,2013-11-03T08:30:00Z,30.6671,-87.9365,8.5,1.97,6.658,-9999.0,'1111122,1111122,1111122' 
DISL,ioos:station:DISL:MHPA:1,2013-11-03T09:00:00Z,30.6671,-87.9365,8.5,2.52,9.36,-9999.0,'1111122,1111122,1111122' 
DISL,ioos:station:DISL:MHPA:1,2013-11-03T09:30:00Z,30.6671,-87.9365,8.5,2.07,358.5,-9999.0,'1111122,1111122,1111122' 
DISL,ioos:station:DISL:MHPA:1,2013-11-03T10:00:00Z,30.6671,-87.9365,8.5,2.41,14.49,-9999.0,'1111122,1111122,1111122' 
DISL,ioos:station:DISL:MHPA:1,2013-11-03T10:30:00Z,30.6671,-87.9365,8.5,2.34,5.363,-9999.0,'1111122,1111122,1111122' 
DISL,ioos:station:DISL:MHPA:1,2013-11-03T11:00:00Z,30.6671,-87.9365,8.5,3.01,13.48,-9999.0,'1111122,1111122,1111122' 
DISL,ioos:station:DISL:MHPA:1,2013-11-03T11:30:00Z,30.6671,-87.9365,8.5,2.92,353.3,-9999.0,'1111122,1111122,1111122' 
DISL,ioos:station:DISL:MHPA:1,2013-11-03T12:00:00Z,30.6671,-87.9365,8.5,2.97,351.6,-9999.0,'1111122,1111122,1111122' 
DISL,ioos:station:DISL:MHPA:1,2013-11-03T12:30:00Z,30.6671,-87.9365,8.5,2.86,351.3,-9999.0,'1111122,1111122,1111122' 
DISL,ioos:station:DISL:MHPA:1,2013-11-03T13:00:00Z,30.6671,-87.9365,8.5,2.87,349.4,-9999.0,'1111122,1111122,1111122' 
DISL,ioos:station:DISL:MHPA:1,2013-11-03T13:30:00Z,30.6671,-87.9365,8.5,2.69,344.2,-9999.0,'1111122,1111122,1111122' 
DISL,ioos:station:DISL:MHPA:1,2013-11-03T14:00:00Z,30.6671,-87.9365,8.5,2.52,351.9,-9999.0,'1111122,1111122,1111122' 
DISL,ioos:station:DISL:MHPA:1,2013-11-03T14:30:00Z,30.6671,-87.9365,8.5,2.64,6.178,-9999.0,'1111122,1111122,1111122' 
DISL,ioos:station:DISL:MHPA:1,2013-11-03T15:00:00Z,30.6671,-87.9365,8.5,3.08,25.2,-9999.0,'1111122,1111122,1111122' 
DISL,ioos:station:DISL:MHPA:1,2013-11-03T15:30:00Z,30.6671,-87.9365,8.5,3.08,47.03,-9999.0,'1111122,1111122,1111122' 
DISL,ioos:station:DISL:MHPA:1,2013-11-03T16:00:00Z,30.6671,-87.9365,8.5,2.81,65.66,-9999.0,'1111122,1111122,1111122' 
DISL,ioos:station:DISL:MHPA:1,2013-11-03T16:30:00Z,30.6671,-87.9365,8.5,2.41,38.24,-9999.0,'1111122,1111122,1111122' 
DISL,ioos:station:DISL:MHPA:1,2013-11-03T17:00:00Z,30.6671,-87.9365,8.5,2.32,33.6,-9999.0,'1111122,1111122,1111122' 
DISL,ioos:station:DISL:MHPA:1,2013-11-03T17:30:00Z,30.6671,-87.9365,8.5,2.99,19.79,-9999.0,'1111122,1111122,1111122' 
DISL,ioos:station:DISL:MHPA:1,2013-11-03T18:00:00Z,30.6671,-87.9365,8.5,3.03,22.0,-9999.0,'1111122,1111122,1111122' 
DISL,ioos:station:DISL:MHPA:1,2013-11-03T18:30:00Z,30.6671,-87.9365,8.5,2.81,7.15,-9999.0,'1111122,1111122,1111122' 
DISL,ioos:station:DISL:MHPA:1,2013-11-03T19:00:00Z,30.6671,-87.9365,8.5,3.67,13.43,-9999.0,'1111122,1111122,1111122' 
DISL,ioos:station:DISL:MHPA:1,2013-11-03T19:30:00Z,30.6671,-87.9365,8.5,3.15,31.76,-9999.0,'1111122,1111122,1111122' 
DISL,ioos:station:DISL:MHPA:1,2013-11-03T20:00:00Z,30.6671,-87.9365,8.5,2.73,44.89,-9999.0,'1111122,1111122,1111122' 
DISL,ioos:station:DISL:MHPA:1,2013-11-03T20:30:00Z,30.6671,-87.9365,8.5,2.94,10.66,-9999.0,'1111122,1111122,1111122' 
DISL,ioos:station:DISL:MHPA:1,2013-11-03T21:00:00Z,30.6671,-87.9365,8.5,1.52,69.4,-9999.0,'1111122,1111122,1111122' 
DISL,ioos:station:DISL:MHPA:1,2013-11-03T21:30:00Z,30.6671,-87.9365,8.5,2.49,17.08,-9999.0,'1111122,1111122,1111122' 
DISL,ioos:station:DISL:MHPA:1,2013-11-03T22:00:00Z,30.6671,-87.9365,8.5,1.92,39.53,-9999.0,'1111122,1111122,1111122' 
DISL,ioos:station:DISL:MHPA:1,2013-11-03T22:30:00Z,30.6671,-87.9365,8.5,1.81,64.43,-9999.0,'1111122,1111122,1111122' 
DISL,ioos:station:DISL:MHPA:1,2013-11-03T23:00:00Z,30.6671,-87.9365,8.5,1.21,62.46,-9999.0,'1111122,1111122,1111122' 
DISL,ioos:station:DISL:MHPA:1,2013-11-03T23:30:00Z,30.6671,-87.9365,8.5,1.11,65.36,-9999.0,'1111122,1111122,1111122' 
DISL,ioos:station:DISL:MHPA:1,2013-11-04T00:00:00Z,30.6671,-87.9365,8.5,1.11,70.3,-9999.0,'1111122,1111122,1111122' 
DISL,ioos:station:DISL:MHPA:1,2013-11-04T00:30:00Z,30.6671,-87.9365,8.5,0.82,70.9,-9999.0,'1111122,1111122,1111122' 
DISL,ioos:station:DISL:MHPA:1,2013-11-04T01:00:00Z,30.6671,-87.9365,8.5,1.26,84.2,-9999.0,'1111122,1111122,1111122' 
DISL,ioos:station:DISL:MHPA:1,2013-11-04T01:30:00Z,30.6671,-87.9365,8.5,1.27,57.05,-9999.0,'1111122,1111122,1111122' 
DISL,ioos:station:DISL:MHPA:1,2013-11-04T02:00:00Z,30.6671,-87.9365,8.5,1.1,62.71,-9999.0,'1111122,1111122,1111122' 
DISL,ioos:station:DISL:MHPA:1,2013-11-04T02:30:00Z,30.6671,-87.9365,8.5,1.13,57.04,-9999.0,'1111122,1111122,1111122' 
DISL,ioos:station:DISL:MHPA:1,2013-11-04T03:00:00Z,30.6671,-87.9365,8.5,1.05,10.37,-9999.0,'1111122,1111122,1111122' 
DISL,ioos:station:DISL:MHPA:1,2013-11-04T03:30:00Z,30.6671,-87.9365,8.5,1.65,51.41,-9999.0,'1111122,1111122,1111122' 
DISL,ioos:station:DISL:MHPA:1,2013-11-04T04:00:00Z,30.6671,-87.9365,8.5,1.49,43.29,-9999.0,'1111122,1111122,1111122' 
DISL,ioos:station:DISL:MHPA:1,2013-11-04T04:30:00Z,30.6671,-87.9365,8.5,1.54,44.41,-9999.0,'1111122,1111122,1111122' 
DISL,ioos:station:DISL:MHPA:1,2013-11-04T05:00:00Z,30.6671,-87.9365,8.5,1.9,62.92,-9999.0,'1111122,1111122,1111122' 
DISL,ioos:station:DISL:MHPA:1,2013-11-04T05:30:00Z,30.6671,-87.9365,8.5,1.86,58.98,-9999.0,'1111122,1111122,1111122' 
DISL,ioos:station:DISL:MHPA:1,2013-11-04T06:00:00Z,30.6671,-87.9365,8.5,1.84,61.19,-9999.0,'1111122,1111122,1111122' 
DISL,ioos:station:DISL:MHPA:1,2013-11-04T06:30:00Z,30.6671,-87.9365,8.5,1.96,66.61,-9999.0,'1111122,1111122,1111122' 
DISL,ioos:station:DISL:MHPA:1,2013-11-04T07:00:00Z,30.6671,-87.9365,8.5,2.38,65.77,-9999.0,'1111122,1111122,1111122' 
DISL,ioos:station:DISL:MHPA:1,2013-11-04T07:30:00Z,30.6671,-87.9365,8.5,2.58,79.4,-9999.0,'1111122,1111122,1111122' 
DISL,ioos:station:DISL:MHPA:1,2013-11-04T08:00:00Z,30.6671,-87.9365,8.5,2.31,82.2,-9999.0,'1111122,1111122,1111122' 
DISL,ioos:station:DISL:MHPA:1,2013-11-04T08:30:00Z,30.6671,-87.9365,8.5,2.54,57.41,-9999.0,'1111122,1111122,1111122' 
DISL,ioos:station:DISL:MHPA:1,2013-11-04T09:00:00Z,30.6671,-87.9365,8.5,1.97,64.25,-9999.0,'1111122,1111122,1111122' 
DISL,ioos:station:DISL:MHPA:1,2013-11-04T09:30:00Z,30.6671,-87.9365,8.5,2.4,69.53,-9999.0,'1111122,1111122,1111122' 
DISL,ioos:station:DISL:MHPA:1,2013-11-04T10:00:00Z,30.6671,-87.9365,8.5,2.91,62.61,-9999.0,'1111122,1111122,1111122' 
DISL,ioos:station:DISL:MHPA:1,2013-11-04T10:30:00Z,30.6671,-87.9365,8.5,2.22,65.05,-9999.0,'1111122,1111122,1111122' 
DISL,ioos:station:DISL:MHPA:1,2013-11-04T11:00:00Z,30.6671,-87.9365,8.5,2.39,57.04,-9999.0,'1111122,1111122,1111122' 
DISL,ioos:station:DISL:MHPA:1,2013-11-04T11:30:00Z,30.6671,-87.9365,8.5,2.66,69.65,-9999.0,'1111122,1111122,1111122' 
DISL,ioos:station:DISL:MHPA:1,2013-11-04T12:00:00Z,30.6671,-87.9365,8.5,2.69,62.26,-9999.0,'1111122,1111122,1111122' 
DISL,ioos:station:DISL:MHPA:1,2013-11-04T12:30:00Z,30.6671,-87.9365,8.5,2.89,65.38,-9999.0,'1111122,1111122,1111122' 
DISL,ioos:station:DISL:MHPA:1,2013-11-04T13:00:00Z,30.6671,-87.9365,8.5,3.65,75.1,-9999.0,'1111122,1111122,1111122' 
DISL,ioos:station:DISL:MHPA:1,2013-11-04T13:30:00Z,30.6671,-87.9365,8.5,4.2,83.5,-9999.0,'1111122,1111122,1111122' 
DISL,ioos:station:DISL:MHPA:1,2013-11-04T14:00:00Z,30.6671,-87.9365,8.5,4.03,86.7,-9999.0,'1111122,1111122,1111122' 
DISL,ioos:station:DISL:MHPA:1,2013-11-04T14:30:00Z,30.6671,-87.9365,8.5,4.2,80.4,-9999.0,'1111122,1111122,1111122' 
DISL,ioos:station:DISL:MHPA:1,2013-11-04T15:00:00Z,30.6671,-87.9365,8.5,4.57,71.9,-9999.0,'1111122,1111122,1111122' 
DISL,ioos:station:DISL:MHPA:1,2013-11-04T15:30:00Z,30.6671,-87.9365,8.5,4.75,88.8,-9999.0,'1111122,1111122,1111122' 
DISL,ioos:station:DISL:MHPA:1,2013-11-04T16:00:00Z,30.6671,-87.9365,8.5,3.78,76.5,-9999.0,'1111122,1111122,1111122' 
DISL,ioos:station:DISL:MHPA:1,2013-11-04T16:30:00Z,30.6671,-87.9365,8.5,3.63,80.8,-9999.0,'1111122,1111122,1111122' 
DISL,ioos:station:DISL:MHPA:1,2013-11-04T17:00:00Z,30.6671,-87.9365,8.5,4.46,90.7,-9999.0,'1111122,1111122,1111122' 
DISL,ioos:station:DISL:MHPA:1,2013-11-04T17:30:00Z,30.6671,-87.9365,8.5,4.23,78.2,-9999.0,'1111122,1111122,1111122' 
DISL,ioos:station:DISL:MHPA:1,2013-11-04T18:00:00Z,30.6671,-87.9365,8.5,3.68,80.9,-9999.0,'1111122,1111122,1111122' 
DISL,ioos:station:DISL:MHPA:1,2013-11-04T18:30:00Z,30.6671,-87.9365,8.5,3.57,80.9,-9999.0,'1111122,1111122,1111122' 
DISL,ioos:station:DISL:MHPA:1,2013-11-04T19:00:00Z,30.6671,-87.9365,8.5,3.37,81.1,-9999.0,'1111122,1111122,1111122' 
DISL,ioos:station:DISL:MHPA:1,2013-11-04T19:30:00Z,30.6671,-87.9365,8.5,3.58,98.6,-9999.0,'1111122,1111122,1111122' 
DISL,ioos:station:DISL:MHPA:1,2013-11-04T20:00:00Z,30.6671,-87.9365,8.5,2.35,65.51,-9999.0,'1111122,1111122,1111122' 
DISL,ioos:station:DISL:MHPA:1,2013-11-04T20:30:00Z,30.6671,-87.9365,8.5,2.82,88.2,-9999.0,'1111122,1111122,1111122' 
DISL,ioos:station:DISL:MHPA:1,2013-11-04T21:00:00Z,30.6671,-87.9365,8.5,3.35,109.8,-9999.0,'1111122,1111122,1111122' 
DISL,ioos:station:DISL:MHPA:1,2013-11-04T21:30:00Z,30.6671,-87.9365,8.5,3.06,103.1,-9999.0,'1111122,1111122,1111122' 
DISL,ioos:station:DISL:MHPA:1,2013-11-04T22:00:00Z,30.6671,-87.9365,8.5,2.77,97.3,-9999.0,'1111122,1111122,1111122' 
DISL,ioos:station:DISL:MHPA:1,2013-11-04T22:30:00Z,30.6671,-87.9365,8.5,1.85,66.12,-9999.0,'1111122,1111122,1111122' 
DISL,ioos:station:DISL:MHPA:1,2013-11-04T23:00:00Z,30.6671,-87.9365,8.5,1.29,43.82,-9999.0,'1111122,1111122,1111122' 
DISL,ioos:station:DISL:MHPA:1,2013-11-04T23:30:00Z,30.6671,-87.9365,8.5,1.98,52.67,-9999.0,'1111122,1111122,1111122' 
DISL,ioos:station:DISL:MHPA:1,2013-11-05T00:00:00Z,30.6671,-87.9365,8.5,2.18,58.3,-9999.0,'1111122,1111122,1111122' 
DISL,ioos:station:DISL:MHPA:1,2013-11-05T00:30:00Z,30.6671,-87.9365,8.5,2.11,51.96,-9999.0,'1111122,1111122,1111122' 
DISL,ioos:station:DISL:MHPA:1,2013-11-05T01:00:00Z,30.6671,-87.9365,8.5,2.49,58.65,-9999.0,'1111122,1111122,1111122' 
DISL,ioos:station:DISL:MHPA:1,2013-11-05T01:30:00Z,30.6671,-87.9365,8.5,2.61,49.43,-9999.0,'1111122,1111122,1111122' 
DISL,ioos:station:DISL:MHPA:1,2013-11-05T02:00:00Z,30.6671,-87.9365,8.5,2.63,56.84,-9999.0,'1111122,1111122,1111122' 
DISL,ioos:station:DISL:MHPA:1,2013-11-05T02:30:00Z,30.6671,-87.9365,8.5,2.99,64.72,-9999.0,'1111122,1111122,1111122' 
DISL,ioos:station:DISL:MHPA:1,2013-11-05T03:00:00Z,30.6671,-87.9365,8.5,3.39,77.7,-9999.0,'1111122,1111122,1111122' 
DISL,ioos:station:DISL:MHPA:1,2013-11-05T03:30:00Z,30.6671,-87.9365,8.5,3.36,76.1,-9999.0,'1111122,1111122,1111122' 
DISL,ioos:station:DISL:MHPA:1,2013-11-05T04:00:00Z,30.6671,-87.9365,8.5,4.14,80.7,-9999.0,'1111122,1111122,1111122' 
DISL,ioos:station:DISL:MHPA:1,2013-11-05T04:30:00Z,30.6671,-87.9365,8.5,4.02,76.3,-9999.0,'1111122,1111122,1111122' 